Location: Lane
(33.5226°N, 79.8788°W)
Time: 16:58:57
(UTC+00:00)

Transit 2A - Pass Details

Date: 27 September 2022
Orbit: 598 x 959 km, 66.7° (Epoch: 06 December)

Event Time Altitude Azimuth Distance (km) Brightness Sun altitude
Rises 03:51:25 0° 159° (SSE) 3,020 - -53.1°
Reaches altitude 10° 03:55:18 10° 127° (SE) 2,037 - -53.5°
Maximum altitude 03:56:54 12° 106° (ESE) 1,900 - -53.7°
Drops below altitude 10° 03:58:28 10° 86° (E) 1,992 - -53.9°
Sets 04:02:07 0° 53° (NE) 2,862 - -54.3°
